Regional Weather Roundup
Issued by NWS Green Bay, WI

Home | Current Version | Previous Version | Text Only | Print | Product List | Glossary On
Versions: 1 2 3 4 5 6 7 8 9 10 11 12 13 14 15 16 17 18 19 20 21 22 23 24 25 26 27 28 29 30 31 32 33 34 35 36 37 38 39 40 41 42 43 44 45 46 47 48 49 50
000
ASUS43 KGRB 070511
RWRGRB

NORTH-CENTRAL AND NORTHEAST WISCONSIN REGIONAL WEATHER ROUNDUP
NATIONAL WEATHER SERVICE GREEN BAY WI
1100 PM CST TUE DEC 06 2016

WIZ005-009-010>012-018-019-070600-
NORTH CENTRAL WISCONSIN

CITY           SKY/WX    TMP DP  RH WIND       PRES   REMARKS
IRONWOOD       FLURRIES  21  15  78 SW20G26   29.59R WCI   6
MANITOWISH WTR FLURRIES  19  14  81 SW15G30   29.60R WCI   5
ARBOR VITAE    LGT SNOW  22  16  79 SW20G26   29.62R WCI   7
EAGLE RIVER    FLURRIES  20  14  76 SW16G28   29.61S WCI   6
LAND O LAKES   FLURRIES  21  15  78 SW8G23    29.61S
RHINELANDER    FLURRIES  21  15  78 SW17G31   29.64S WCI   7
PHILLIPS       LGT SNOW  19  14  84 SW17G23   29.65R WCI   3
ANTIGO         CLOUDY    20  15  81 SW21G28   29.69S WCI   4
TOMAHAWK       FLURRIES  19  14  79 SW7G21    29.68R
MERRILL        FLURRIES  22  16  79 SW17G26   29.71R WCI   7
$$

WIZ013-073-070600-
NORTHEAST WISCONSIN

CITY           SKY/WX    TMP DP  RH WIND       PRES   REMARKS
IRON MOUNTAIN  CLOUDY    24  14  65 W14G25    29.64S
MARINETTE      FLURRIES  27  17  66 W12G17    29.75R
OCONTO         CLOUDY    27  16  64 W17G25    29.77R
$$

WIZ017-030-035>037-045-070600-
CENTRAL WISCONSIN

CITY           SKY/WX    TMP DP  RH WIND       PRES   REMARKS
MEDFORD        LGT SNOW  19  13  78 SW22G30   29.71R WCI   2
WAUSAU         FLURRIES  22  15  75 W15G24    29.73R WCI   9
MOSINEE        CLOUDY    23  19  86 SW15G23   29.76R
MARSHFIELD     CLOUDY    21  13  71 W16G24    29.75R WCI   7
WISC RAPIDS    CLOUDY    24  16  71 W14G26    29.81R
STEVENS POINT  CLOUDY    22  15  72 SW16      29.78R WCI   8
WAUPACA        CLOUDY    27  18  69 SW15G22   29.81R
SHAWANO        CLOUDY    28  18  66 W16G25    29.77S
CLINTONVILLE   CLOUDY    27  18  69 W18       29.78S
WAUTOMA        CLOUDY    25  17  72 W17G24    29.83R
$$

WIZ038-039-048-051-070600-
FOX VALLEY

CITY           SKY/WX    TMP DP  RH WIND       PRES   REMARKS
NWS GREEN BAY  CLOUDY    29  19  66 W17       29.79R
APPLETON       CLOUDY    27  16  63 W21G28    29.79R
OSHKOSH        CLOUDY    26  16  65 W12G23    29.82R
FOND DU LAC    CLOUDY    27  16  63 SW15G25   29.84R
$$

WIZ022-050-052-070600-
EAST CENTRAL WISCONSIN

CITY           SKY/WX    TMP DP  RH WIND       PRES   REMARKS
EPHRAIM        CLOUDY    27  18  69 W18G26    29.72R
WASHINGTON ISL CLOUDY    27  18  68 W17G26    29.72S
STURGEON BAY   CLOUDY    27  18  69 W20G31    29.76R
MANITOWOC      CLOUDY    28  19  69 W16G26    29.81R
SHEBOYGAN      CLOUDY    27  18  69 W21G29    29.83R
$$

LMZ563-521-522-541>543-070600-
LAKESHORE

STATION/POSITION TIME  TEMP    WIND        PRES    VSBY  WAVE
                       AIR SEA DIR/SP/G                  HT/PER
                 (UTC) (F)     (DEG/KT/KT) (MB)    (MI)  (FT/S)
SHEBOYGAN LKSHOR 0500   28     240/ 15/ 20 1010.8R
KEWAUNEE LKSHORE 0448   28     310/ 18/ 27 1008.4R
NORTHPORT PIER   0440   28     230/  6/ 16 1006.8R
SISTER BAY LKSHO 0353   29     260/ 24/ 30   N/A
CHAMBERS ISLAND  0440   28     220/ 11/ 22 1006.4S
MENOMINEE LKSHOR 0448   27     220/ 17/ 24 1006.6R
$$



USA.gov is the U.S. government's official web portal to all federal, state and local government web resources and services.